Regional Weather Roundup
Issued by NWS San Diego, CA

Home | Current Version | Previous Version | Text Only | Print | Product List | Glossary On
Versions: 1 2 3 4 5 6 7 8 9 10 11 12 13 14 15 16 17 18 19 20 21 22 23 24 25 26 27 28 29 30 31 32 33 34 35 36 37 38 39 40 41 42 43 44 45
000
ASUS46 KSGX 052211
RWRSGX
SAN DIEGO HOURLY WEATHER ROUNDUP
NATIONAL WEATHER SERVICE SAN DIEGO CA
200 PM PST THU MAR 05 2015

NOTE: "FAIR" INDICATES FEW OR NO CLOUDS BELOW 12,000 FEET WITH NO
SIGNIFICANT WEATHER AND/OR OBSTRUCTIONS TO VISIBILITY.

CAZ042-043-060-061-PZZ750-775-052300-

GREATER SAN DIEGO AREA

CITY           SKY/WX    TMP DP  RH WIND       PRES   REMARKS
LINDBERGH FLD  SUNNY     72  34  24 NW13      30.19F
NATIONAL CITY    N/A     76  42  29 NW6       30.16F
CHULA VISTA      N/A     76  42  28 NW1       30.10F
IMPERIAL BEACH MOSUNNY   70  43  37 NW16      30.17F
BROWN FIELD    SUNNY     75  27  17 CALM      30.17F
MIRAMAR MCAS   SUNNY     73  30  20 NW9       30.18F
MONTGOMERY FLD SUNNY     74  33  22 W9        30.18F

$$

NORTH SAN DIEGO COUNTY

CITY           SKY/WX    TMP DP  RH WIND       PRES   REMARKS
CAMP PENDLETON MOSUNNY   73  32  22 SW10      30.18F
OCEANSIDE AP   SUNNY     69  48  47 SW10      30.18F
OCEANSIDE HBR    N/A     64  56  75 W6        30.21F
VISTA            N/A     69  43  38 W2        30.18F
CARLSBAD       SUNNY     67  36  31 W8        30.18F
DEL MAR          N/A     69  52  55 CALM      30.21F
LA JOLLA SCRIP   N/A     63  38  39 CALM      30.16F
FALLBROOK        N/A     74  41  29 CALM      30.19F
ESCONDIDO        N/A     73  38  27 NW9       30.19F
SAN MARCOS       N/A     73  36  26 NW2       30.17F
POWAY            N/A     76  38  26 SW6       30.20F

$$

EAST SAN DIEGO COUNTY

CITY           SKY/WX    TMP DP  RH WIND       PRES   REMARKS
RAMONA         SUNNY     71  23  16 E13G18    30.19F
SANTEE LAKES     N/A     77  36  22 CALM      30.18F
LA MESA          N/A     74  29  19 NE1       30.12F
JAMUL            N/A     72  34  24 NW6       30.18F
DESCANSO N       N/A     62  29  29 E3        30.12F
MT. LAGUNA OBS   N/A     42  17  36 NE13      29.82F
CAMPO            N/A     61  23  23 NE20G29   30.19F

$$

ORANGE COUNTY AND THE LOS ANGELES BASIN

CITY           SKY/WX    TMP DP  RH WIND       PRES   REMARKS
JOHN WAYNE AP  MOSUNNY   79  24  13 SW8       30.17F
LAKE FOREST FR   N/A     81  19  10 CALM      30.08F
SANTA ANA        N/A     81  22  11 N3        30.13F
HUNTINGTON BCH   N/A     77  52  42 W2        30.20F
LOS ALAMITOS   MOSUNNY   78  24  13 NW10G21   30.18F
FULLERTON      SUNNY     79  22  12 NW5       30.17F
LONG BEACH     SUNNY     77  19  11 VRB3      30.19F
L.A. AP        MOSUNNY   72  21  14 SW8       30.20F
L.A. DOWNTOWN  SUNNY     75  22  13 MISG      30.19F

$$

THE INLAND EMPIRE

CITY           SKY/WX    TMP DP  RH WIND       PRES   REMARKS
CORONA         SUNNY     78  22  12 NE10G16   30.19F
CHINO          SUNNY     75  26  16 NW6       30.20F
ONTARIO        MOSUNNY   73  22  14 CALM      30.20F
SAN BERNARDINO MOSUNNY   72  18  13 CALM      30.20F
RIVERSIDE AP   SUNNY     75  15  10 VRB3      30.19F
RIV CYN CREST    N/A     79  37  22 E3          N/A
MORENO VALLEY    N/A     72  32  22 NW1       29.40F
MARCH ARB      SUNNY     72  22  15 E8        30.21F
HORSETHIEF CYN   N/A     71  22  15 W5        30.19F
PERRIS           N/A     69  27  20 E5          N/A
MENIFEE          N/A     74  27  18 CALM      30.29F
HEMET EAST       N/A     70  20  15 W1        30.22F
FRENCH VALLEY  FAIR      72  25  17 CALM      30.20F
TEMECULA         N/A     76  31  19 W3        30.13F

$$

SAN BERNARDINO AND RIVERSIDE COUNTY MOUNTAINS

CITY           SKY/WX    TMP DP  RH WIND       PRES   REMARKS
BIG BEAR AP    SUNNY     48   0  13 NE10      30.34S
ANGELUS OAKS     N/A     55  25  31 W1        30.24F
PINE COVE        N/A     52  19  27 S1        30.30S

$$

SOUTHERN DESERT INCLUDING THE COACHELLA VALLEY

CITY           SKY/WX    TMP DP  RH WIND       PRES   REMARKS
PALM SPRINGS   SUNNY     75  14  10 S6        30.23F
THOUSAND PALMS   N/A     78  21  12 SW3       30.21F
PALM DESERT      N/A     79  24  13 S3        28.97S
THERMAL        SUNNY     78  19  11 NW7       30.20F
BLYTHE         SUNNY     72  28  19 N9        30.23F
IMPERIAL AP    SUNNY     73  32  22 N6        30.20F
EL CENTRO NAS  SUNNY     74  28  18 VRB3      30.21F
YUMA AZ        SUNNY     76  30  18 N8G16     30.19F
MEXICALI       SUNNY     73  19  13 N14       30.21

$$

UPPER DESERT

CITY           SKY/WX    TMP DP  RH WIND       PRES   REMARKS
VICTORVILLE AP MOSUNNY   64   9  11 NE13G18   30.29F
HESPERIA         N/A     63  15  15 E3        30.46F
APPLE VALLEY     N/A     66  13  13 N1        30.27F
PALMDALE       SUNNY     65  12  12 NE13      30.29F
LANCASTER      SUNNY     65  16  15 NE15G22   30.29F
EDWARDS AFB    MOSUNNY   66  17  15 E6        30.27F
DAGGETT        SUNNY     65  14  14 SE5       30.29F
29 PALMS N     SUNNY     64  17  16 SW6       30.34F
NEEDLES        SUNNY     71  22  15 N13       30.25

$$

REGIONAL REPORTS

CITY           SKY/WX    TMP DP  RH WIND       PRES   REMARKS
SANTA BARBARA  SUNNY     71  40  32 W7        30.21F
SANDBERG       SUNNY     58  16  19 E16G28    30.32F
MT. WILSON       N/A     61  21  21 MISG        N/A
LAS VEGAS NV   SUNNY     63  19  18 VRB3      30.28F
PHOENIX AZ     SUNNY     72  13  10 E8        30.18F
TIJUANA        SUNNY     73  28  19 N7        30.19F
ENSENADA NW      N/A     67  32  27 NW15      30.13F

$$

OFFSHORE ISLANDS

CITY           SKY/WX    TMP DP  RH WIND       PRES   REMARKS
CATALINA ARPT  SUNNY     67  20  16 NE7       30.24F
SAN CLEMENTE I MOSUNNY   68  54  60 N6        30.22F
SAN NICOLAS IS SUNNY     32  32 100 E7        30.22F WCI  26

$$

MARINE AND OFFSHORE BUOY REPORTS

STATION/POSITION SKY/WX   TEMP    WIND        PRES    SWELL
                          AIR SEA DIR/SP/G            HT/PER/DIR
                          (F)     (DEG/KT/KT) (MB)    (FT/S/D)
TANNER BANKS               62 62   30/  4/  6 1022.8F   5/190/15
S CLEMENTE BASIN           61 63  350/ 10/ 12 1022.3F   3/210/15
SAN NICOLAS IS.               60                N/A     3/180/17
SO. S. ROSA ISLA           61 62  340/  4/  6 1022.9F   5/15
W. S. BARBARA CH           63 63  330/  4/  4 1023.1F   3/220/16
S. MONICA BASIN            64 65  190/  2/  4 1023.3F   3/180/16
S PEDRO CHANNEL               63                N/A     2/190/15
DANA POINT                    62                N/A     3/190/15
CMP PENDLETON NS              62                N/A     3/210/15
OCEANSIDE OFFSHR              62                N/A     3/190/17
TORREY PINES OTR              63                N/A     3/190/15
LA JOLLA 1                 65 62  340/  1/  2 1023.0F
MISSION BAY BUOY              62                N/A     3/200/14
SAN DIEGO BAY                 64              1023.0F
POINT LOMA SOUTH              63                N/A     3/190/15

$$



USA.gov is the U.S. government's official web portal to all federal, state and local government web resources and services.